Regional Weather Roundup
Issued by NWS

Home | Current Version | Previous Version | Graphics & Text | Print | Product List | Glossary On
Versions: 1 2 3 4 5 6 7 8 9 10 11 12 13 14 15 16 17 18 19 20 21 22 23 24 25 26 27 28 29 30 31 32 33 34 35 36 37 38 39 40 41 42 43 44 45 46 47 48 49 50
000
ASUS43 KMKX 240821
RWRWI

WISCONSIN REGIONAL WEATHER ROUNDUP
NATIONAL WEATHER SERVICE MILWAUKEE/SULLIVAN WI
300 AM CDT THU APR 24 2014

NOTE: "FAIR" INDICATES FEW OR NO CLOUDS BELOW 12,000 FEET WITH NO
SIGNIFICANT WEATHER AND/OR OBSTRUCTIONS TO VISIBILITY.

WIZ001-002-006>008-014>016-023>028-240900-
NORTHWEST WISCONSIN

CITY           SKY/WX    TMP DP  RH WIND       PRES   REMARKS
SUPERIOR ARPT  LGT RAIN  34  34  99 NE3       30.01F
ASHLAND        LGT RAIN  38  38 100 CALM      30.05S
HAYWARD        LGT RAIN  37  34  89 E7        29.99F WCI  32
SIREN          CLOUDY    39  38  93 SE8       29.93F WCI  34
RICE LAKE      LGT RAIN  39  37  93 E14       29.98F WCI  31
LADYSMITH      LGT RAIN  38  37  96 E9        30.03F WCI  31
EAU CLAIRE     CLOUDY    40  38  93 SE16G25   29.96F WCI  31
MENOMONIE      CLOUDY    42  39  88 E18G24    29.94F
NEW RICHMOND   CLOUDY    42  38  88 SE13G18   29.90F
OSCEOLA        DRIZZLE   42  40  92 E12       29.93F
$$

WIZ003>005-009-010-017-018-240900-
NORTH CENTRAL WISCONSIN

CITY           SKY/WX    TMP DP  RH WIND       PRES   REMARKS
WOODRUFF       LGT SNOW  34  30  85 SE8       30.06F WCI  27
RHINELANDER    LGT SNOW  32  30  92 E6        30.09S FOG     WCI  26
EAGLE RIVER    CLOUDY    36  29  74 S8        30.06S WCI  30
LAND O LAKES   CLOUDY    40  12  32 S5        30.07S
PHILLIPS       LGT RAIN  33  32  97 E7        30.04S WCI  27
TOMAHAWK       LGT SNOW  32  31  94 CALM      30.07S
MEDFORD        CLOUDY    36  28  72 E8        30.02F WCI  30
MERRILL        CLOUDY    34  32  92 E7        30.06F WCI  28
$$

WIZ029-030-035-036-043>047-240900-
CENTRAL WISCONSIN

CITY           SKY/WX    TMP DP  RH WIND       PRES   REMARKS
WAUSAU         CLOUDY    39  20  46 SE9       30.05F WCI  33
MOSINEE        CLOUDY    37  10  32 SE9       30.07S WCI  31
MARSHFIELD     LGT RAIN  36  29  75 SE13      30.03F WCI  27
STEVENS POINT  CLOUDY    38  14  36 SE7       30.07F WCI  33
WAUPACA        CLOUDY    43  18  36 CALM      30.09F
WAUTOMA        LGT RAIN  37  26  65 SE5       30.09F WCI  33
WISC RAPIDS    LGT RAIN  34  29  82 E6        30.07F WCI  29
CAMP DOUGLAS   LGT RAIN  37  37 100 SE13      30.02F WCI  28
$$

WIZ011>013-019>022-031-037>040-048>050-240900-
NORTHEAST WISCONSIN

CITY           SKY/WX    TMP DP  RH WIND       PRES   REMARKS
ANTIGO         CLOUDY    35  24  64 E6        30.08F WCI  30
STURGEON BAY   CLOUDY    37  19  48 E7        30.11F WCI  32
GREEN BAY      CLOUDY    41  21  44 E3        30.10S
MANITOWOC      CLOUDY    41  23  48 VRB3      30.11S
APPLETON       CLOUDY    41  18  38 E3        30.09S
CLINTONVILLE   CLOUDY    41  19  42 SE6G16    30.09S
OSHKOSH        CLOUDY    40  21  46 S5        30.10S
$$

WIZ032>034-041-042-053>061-240900-
SOUTHWEST WISCONSIN

CITY           SKY/WX    TMP DP  RH WIND       PRES   REMARKS
LA CROSSE      LGT RAIN  42  36  79 SE9       29.96F
SPARTA         RAIN      38  36  91 E8        30.02S WCI  32
VIROQUA        CLOUDY    37  37 100 E14       29.97  WCI  29
BOSCOBEL       LGT RAIN  41  34  76 E6        29.98F
PRAIRIE DU CHI LGT RAIN  41  35  81 E10       29.94F
PLATTEVILLE    FAIR      40  33  77 E14       29.97F WCI  32
$$

WIZ056-057-062-063-064-067-068-240900-
SOUTH CENTRAL WISCONSIN

CITY           SKY/WX    TMP DP  RH WIND       PRES   REMARKS
BARABOO/DELLS  LGT RAIN  35  32  87 E10G18    30.02F WCI  28
LONE ROCK      LGT RAIN  39  33  79 E17       30.01F WCI  30
WATERTOWN      CLOUDY    35  27  71 E5        30.09S WCI  31
MADISON        CLOUDY    36  29  75 MISG      30.06F
MIDDLETON      CLOUDY    38  33  81 E12       30.03F WCI  31
MONROE         CLOUDY    37  36  94 E14       30.01S WCI  29
JANESVILLE     CLOUDY    37  30  75 E9        30.06S WCI  31
$$

WIZ051-052-058>065-066-070>072-240900-
SOUTHEAST WISCONSIN

CITY           SKY/WX    TMP DP  RH WIND       PRES   REMARKS
MILWAUKEE      LGT RAIN  39  27  62 NW6       30.11R WCI  35
WAUKESHA       CLOUDY    34  27  75 CALM      30.11F
MILWAUKEE/TIMM LGT RAIN  37  23  56 CALM      30.11S
RACINE         LGT RAIN  37  32  82 W6        30.12R WCI  32
BURLINGTON     MIX PCPN  34  31  88 CALM      30.09F
KENOSHA        CLOUDY    37  31  78 NW5       30.11R WCI  33
FOND DU LAC    CLOUDY    41  14  33 W3        30.10R
SHEBOYGAN      CLOUDY    38  26  62 CALM      30.09F
WEST BEND      CLOUDY    37  18  44 CALM      30.10S
JUNEAU         LGT SNOW  36  24  63 NE7       30.10F WCI  30
$$

LSZ147-162-240900-
LAKE SUPERIOR

STATION/POSITION TIME  TEMP    WIND        PRES    WAVE
                       AIR SEA DIR/SP/G            HT/PER
                 (UTC) (F)     (DEG/KT/KT) (MB)    (FT/S)
DEVILS ISLAND    0800   38     250/  5/  5 1018.6F
PORT WING        0740   34      10/  3/  5 1017.3F
SAXON HARBOR     0700             CALM     1017.6
$$

LMZ867-665-643>646-240900-
LAKE MICHIGAN

STATION/POSITION TIME  TEMP    WIND        PRES    WAVE
                       AIR SEA DIR/SP/G            HT/PER
                 (UTC) (F)     (DEG/KT/KT) (MB)    (FT/S)
NORTHPORT PIER   0700   37      CALM  /  1 1020.0F
SISTER BAY       0753   39     110/  5/  9   N/A
KEWAUNEE LAKESHO 0800   38      40/  4/  4 1019.9F
SHEBOYGAN LAKESH 0800   40      CALM  /  1 1019.9F
PORT WASHINGTON  0700   40      70/  4/  5 1019.6
MILWAUKEE LAKESH 0800   40     290/  4/  5   N/A
KENOSHA   LAKESH 0800   38     310/  5/  7   N/A
$$

TC  - TEMPERATURE IN CELSIUS
VSB - VISIBILITY IN STATUTE MILES
WCI - WIND CHILL INDEX
HX  - HEAT INDEX




USA.gov is the U.S. government's official web portal to all federal, state and local government web resources and services.